TimeCEST,TemperatureF,Dew PointF,Humidity,Sea Level PressureIn,VisibilityMPH,Wind Direction,Wind SpeedMPH,Gust SpeedMPH,PrecipitationIn,Events,Conditions,WindDirDegrees,DateUTC
12:00 AM,44.6,44.6,100,30.06,2.8,West,3.5,-,N/A,,Light Drizzle,280,2012-10-24 22:00:00
12:30 AM,44.6,44.6,100,30.06,2.8,West,3.5,-,N/A,,Overcast,260,2012-10-24 22:30:00
1:00 AM,44.6,42.8,93,30.04,2.5,SW,6.9,-,N/A,,Overcast,220,2012-10-24 23:00:00
1:30 AM,44.6,42.8,93,30.04,2.5,SW,6.9,-,N/A,,Overcast,220,2012-10-24 23:30:00
2:00 AM,44,44,98,30.07,2,SW,4.5,,,,Mist,230,2012-10-25 00:00:00
2:00 AM,44.6,42.8,93,30.04,2.5,SW,5.8,-,N/A,,Overcast,230,2012-10-25 00:00:00
2:30 AM,44.6,42.8,93,30.04,2.2,WSW,4.6,-,N/A,,Overcast,240,2012-10-25 00:30:00
3:00 AM,44.6,44.6,100,30.04,1.9,SW,5.8,-,N/A,,Overcast,230,2012-10-25 01:00:00
3:26 AM,44.6,44.6,100,30.01,2.5,WSW,5.8,-,N/A,,Overcast,240,2012-10-25 01:26:00
3:30 AM,44.6,44.6,100,30.01,2.5,WSW,5.8,-,N/A,,Overcast,240,2012-10-25 01:30:00
4:00 AM,44.6,44.6,100,30.01,2.8,WSW,5.8,-,N/A,,Overcast,240,2012-10-25 02:00:00
4:30 AM,44.6,44.6,100,30.01,3.1,WSW,3.5,-,N/A,,Overcast,240,2012-10-25 02:30:00
5:00 AM,44.6,44.6,100,29.98,3.1,SW,6.9,-,N/A,,Overcast,230,2012-10-25 03:00:00
5:30 AM,44.6,44.6,100,29.98,3.7,West,4.6,-,N/A,,Overcast,260,2012-10-25 03:30:00
5:56 AM,44.6,44.6,100,29.98,4.3,West,6.9,-,N/A,,Overcast,260,2012-10-25 03:56:00
6:00 AM,44.6,44.6,100,29.98,4.3,WSW,6.9,-,N/A,,Overcast,250,2012-10-25 04:00:00
6:30 AM,44.6,42.8,93,29.98,3.7,West,5.8,-,N/A,,Light Drizzle,270,2012-10-25 04:30:00
7:00 AM,44.6,42.8,93,29.98,3.1,WSW,8.1,-,N/A,,Overcast,250,2012-10-25 05:00:00
7:30 AM,44.6,42.8,93,29.98,2.8,WSW,9.2,-,N/A,,Overcast,240,2012-10-25 05:30:00
8:00 AM,44,43,94,30.00,3,WSW,6.7,,,,Mist,250,2012-10-25 06:00:00
8:00 AM,44.6,42.8,93,29.98,2.8,SW,9.2,-,N/A,,Overcast,230,2012-10-25 06:00:00
8:30 AM,44.6,42.8,93,29.95,2.5,SW,9.2,-,N/A,,Overcast,230,2012-10-25 06:30:00
9:00 AM,44.6,42.8,93,29.95,2.8,WSW,8.1,-,N/A,,Overcast,240,2012-10-25 07:00:00
9:30 AM,44.6,42.8,93,29.95,2.8,West,8.1,-,N/A,,Mostly Cloudy,270,2012-10-25 07:30:00
10:00 AM,44.6,42.8,93,29.95,3.7,WSW,8.1,-,N/A,,Mostly Cloudy,250,2012-10-25 08:00:00
10:30 AM,46.4,42.8,87,29.95,4.3,SW,9.2,-,N/A,,Overcast,230,2012-10-25 08:30:00
11:00 AM,46.4,42.8,87,29.95,5.0,WSW,11.5,-,N/A,,Overcast,240,2012-10-25 09:00:00
11:30 AM,46.4,44.6,93,29.95,5.0,WSW,10.4,-,N/A,,Overcast,240,2012-10-25 09:30:00
12:00 PM,48.2,44.6,87,29.92,5.0,WSW,10.4,-,N/A,,Overcast,240,2012-10-25 10:00:00
12:30 PM,48.2,44.6,87,29.92,5.0,WSW,12.7,-,N/A,,Overcast,250,2012-10-25 10:30:00
1:00 PM,48.2,44.6,87,29.89,4.3,WSW,12.7,-,N/A,,Mostly Cloudy,240,2012-10-25 11:00:00
1:30 PM,48.2,44.6,87,29.89,4.3,WSW,11.5,-,N/A,,Mostly Cloudy,240,2012-10-25 11:30:00
2:00 PM,48,44,82,29.91,4,WSW,13.4,,,,Mist,250,2012-10-25 12:00:00
2:00 PM,48.2,44.6,87,29.89,4.3,WSW,15.0,-,N/A,,Overcast,250,2012-10-25 12:00:00
2:18 PM,48.2,44.6,87,29.86,4.3,WSW,12.7,-,N/A,,Overcast,240,2012-10-25 12:18:00
2:30 PM,48.2,44.6,87,29.86,4.3,WSW,12.7,-,N/A,,Overcast,250,2012-10-25 12:30:00
3:00 PM,48.2,44.6,87,29.86,4.3,WSW,15.0,-,N/A,,Overcast,240,2012-10-25 13:00:00
3:30 PM,48.2,44.6,87,29.86,4.3,SW,10.4,-,N/A,,Overcast,230,2012-10-25 13:30:00
3:46 PM,48.2,44.6,87,29.86,4.3,WSW,10.4,-,N/A,,Mostly Cloudy,250,2012-10-25 13:46:00
4:00 PM,48.2,44.6,87,29.86,5.6,WSW,11.5,-,N/A,,Mostly Cloudy,250,2012-10-25 14:00:00
4:30 PM,48.2,44.6,87,29.86,6.2,WSW,10.4,-,N/A,,Mostly Cloudy,250,2012-10-25 14:30:00
5:00 PM,48.2,44.6,87,29.86,6.2,WSW,10.4,-,N/A,,Mostly Cloudy,250,2012-10-25 15:00:00
5:30 PM,48.2,42.8,82,29.86,6.2,WSW,11.5,-,N/A,,Mostly Cloudy,250,2012-10-25 15:30:00
6:00 PM,48.2,44.6,87,29.86,6.2,West,9.2,-,N/A,,Mostly Cloudy,260,2012-10-25 16:00:00
6:30 PM,48.2,42.8,82,29.83,6.2,West,10.4,-,N/A,,Mostly Cloudy,260,2012-10-25 16:30:00
7:00 PM,46.4,42.8,87,29.86,6.2,WSW,8.1,-,N/A,,Mostly Cloudy,250,2012-10-25 17:00:00
7:30 PM,48.2,42.8,82,29.83,6.2,WSW,8.1,-,N/A,,Mostly Cloudy,240,2012-10-25 17:30:00
8:00 PM,48,43,78,29.87,12,WSW,8.9,,,,Mostly Cloudy,240,2012-10-25 18:00:00
8:00 PM,48.2,42.8,82,29.83,6.2,WSW,10.4,-,N/A,,Mostly Cloudy,240,2012-10-25 18:00:00
8:30 PM,48.2,44.6,87,29.83,6.2,SW,10.4,-,N/A,,Mostly Cloudy,230,2012-10-25 18:30:00
9:00 PM,48.2,44.6,87,29.83,6.2,WSW,13.8,-,N/A,,Mostly Cloudy,240,2012-10-25 19:00:00
9:30 PM,48.2,44.6,87,29.83,6.2,WSW,12.7,-,N/A,,Mostly Cloudy,240,2012-10-25 19:30:00
10:00 PM,48.2,44.6,87,29.83,6.2,SW,11.5,-,N/A,,Mostly Cloudy,230,2012-10-25 20:00:00
10:30 PM,48.2,44.6,87,29.83,6.2,WSW,15.0,-,N/A,,Mostly Cloudy,240,2012-10-25 20:30:00
11:00 PM,48.2,44.6,87,29.83,6.2,WSW,12.7,-,N/A,,Mostly Cloudy,250,2012-10-25 21:00:00
11:30 PM,46.4,42.8,87,29.83,6.2,WSW,9.2,-,N/A,,Scattered Clouds,250,2012-10-25 21:30:00